Location: *
(51.5000°N, 0.1100°W)
Time: 16:33:09
(UTC+00:00)

COSMOS 2406 - Pass Details

Date: 25 May 2024
Orbit: 844 x 862 km, 71.0° (Epoch: 16 June)

Event Time Altitude Azimuth Distance (km) Brightness Sun altitude
Exits shadow 00:56:13 25° 206° (SSW) 1,657 4.1 -16.4°
Maximum altitude 00:59:41 87° 118° (ESE) 871 3.2 -16.2°
Drops below altitude 10° 01:05:28 10° 31° (NNE) 2,509 6.9 -16.0°
Sets 01:07:56 0° 31° (NNE) 3,448 8.0 -15.9°
